DW7355 Weather Reports


Display with metric or nautical units.
time (UTC)temp
F
wind
direction
speed
MPH
gust
MPH
rain 1hr
in
rain 24hr
in
rain mn
in
humidity
%
barometer
mb
20240617203021 79 167 3.0 8.0 0.00 0.00 0.00 60 1019.5
20240617201510 79 200 2.0 8.0 0.00 0.00 0.00 59 1019.3
20240617200010 80 200 4.0 12.0 0.00 0.00 0.00 57 1019.3
20240617194510 81 231 2.0 10.0 0.00 0.00 0.00 56 1019.3
20240617193011 80 201 3.0 10.0 0.00 0.00 0.00 58 1019.6
20240617191508 79 152 3.0 9.0 0.00 0.00 0.00 59 1019.9
20240617190004 80 145 2.0 10.0 0.00 0.00 0.00 58 1019.9
20240617184504 80 239 2.0 13.0 0.00 0.00 0.00 57 1019.8
20240617183002 81 261 2.0 8.0 0.00 0.00 0.00 55 1019.9
20240617181620 82 257 2.0 10.0 0.00 0.00 0.00 55 1020.1
20240617180059 82 276 1.0 8.0 0.00 0.00 0.00 54 1020.4
20240617174558 82 331 2.0 13.0 0.00 0.00 0.00 54 1020.6
20240617173058 82 259 3.0 9.0 0.00 0.00 0.00 54 1020.9
20240617171556 82 293 2.0 8.0 0.00 0.00 0.00 54 1020.6
20240617170054 81 264 3.0 9.0 0.00 0.00 0.00 55 1020.5
20240617164553 81 166 3.0 7.0 0.00 0.00 0.00 55 1020.4
20240617163052 80 232 4.0 13.0 0.00 0.00 0.00 54 1020.5
20240617161547 80 232 4.0 11.0 0.00 0.00 0.00 55 1020.6
20240617160045 79 288 4.0 7.0 0.00 0.00 0.00 54 1020.9
20240617154542 78 153 3.0 12.0 0.00 0.00 0.00 55 1021.1
20240617153045 78 194 5.0 9.0 0.00 0.00 0.00 55 1021.4
20240617151537 77 232 2.0 7.0 0.00 0.00 0.00 56 1021.8
20240617150038 77 201 2.0 8.0 0.00 0.00 0.00 56 1022.2
20240617144541 77 139 3.0 8.0 0.00 0.00 0.00 57 1022.4
20240617143032 76 229 2.0 9.0 0.00 0.00 0.00 58 1022.5
20240617141532 76 264 0.0 8.0 0.00 0.00 0.00 59 1022.6
20240617140026 75 190 3.0 7.0 0.00 0.00 0.00 59 1022.7
20240617134524 73 177 1.0 6.0 0.00 0.00 0.00 63 1022.8
20240617133019 73 253 2.0 6.0 0.00 0.00 0.00 64 1022.9
20240617131515 71 169 3.0 7.0 0.00 0.00 0.00 67 1023.1
20240617130018 70 239 2.0 6.0 0.00 0.00 0.00 71 1023.1
20240617124508 68 252 1.0 6.0 0.00 0.00 0.00 75 1023.2
20240617123007 68 211 1.0 10.0 0.00 0.00 0.00 75 1023.5
20240617121504 67 198 4.0 9.0 0.00 0.00 0.00 76 1023.5
20240617120058 65 337 1.0 9.0 0.00 0.00 0.00 80 1023.6
20240617114555 63 308 0.0 5.0 0.00 0.00 0.00 83 1023.7
20240617113053 63 236 0.0 5.0 0.00 0.00 0.00 84 1023.8
20240617111552 63 165 0.0 4.0 0.00 0.00 0.00 84 1023.9
20240617110053 62 269 1.0 6.0 0.00 0.00 0.00 85 1023.8
20240617104551 60 314 0.0 5.0 0.00 0.00 0.00 85 1023.8
20240617103054 60 186 0.0 5.0 0.00 0.00 0.00 86 1023.7
20240617101549 60 89 0.0 3.0 0.00 0.00 0.00 86 1023.4
20240617100049 59 184 1.0 4.0 0.00 0.00 0.00 85 1023.2
20240617094548 59 208 1.0 5.0 0.00 0.00 0.00 86 1023.1
20240617093051 58 176 0.0 3.0 0.00 0.00 0.00 86 1023.4
20240617091548 58 266 0.0 1.0 0.00 0.00 0.00 85 1023.6
20240617090046 58 208 0.0 1.0 0.00 0.00 0.00 85 1023.7
20240617084550 59 208 0.0 1.0 0.00 0.00 0.00 84 1023.7
20240617083040 59 208 0.0 2.0 0.00 0.00 0.00 83 1023.6
20240617081540 59 208 0.0 1.0 0.00 0.00 0.00 82 1023.4
20240617080040 60 207 0.0 1.0 0.00 0.00 0.00 81 1023.4
20240617074534 60 208 0.0 3.0 0.00 0.00 0.00 80 1023.3
20240617073037 61 301 0.0 1.0 0.00 0.00 0.00 79 1023.4
20240617071545 61 260 1.0 3.0 0.00 0.00 0.00 78 1023.4
20240617070030 61 269 0.0 4.0 0.00 0.00 0.00 78 1023.4
20240617064535 61 266 1.0 3.0 0.00 0.00 0.00 78 1023.3
20240617063035 62 246 0.0 3.0 0.00 0.00 0.00 77 1023.4
20240617061534 62 221 0.0 3.0 0.00 0.00 0.00 77 1023.3
20240617060027 62 183 1.0 4.0 0.00 0.00 0.00 76 1023.3
20240617054529 62 245 1.0 4.0 0.00 0.00 0.00 76 1023.3
20240617053025 62 204 1.0 3.0 0.00 0.00 0.00 76 1023.3
20240617051531 62 249 0.0 4.0 0.00 0.00 0.00 76 1023.2
20240617050022 62 245 1.0 4.0 0.00 0.00 0.00 76 1023.3
20240617044521 62 295 0.0 4.0 0.00 0.00 0.00 76 1023.3
20240617043021 62 248 1.0 7.0 0.00 0.00 0.00 75 1023.2
20240617041516 63 249 0.0 4.0 0.00 0.00 0.00 73 1023.2
20240617040014 63 281 0.0 5.0 0.00 0.00 0.00 72 1023.1
20240617034511 63 314 0.0 4.0 0.00 0.00 0.00 72 1023.3
20240617033031 63 165 0.0 5.0 0.00 0.00 0.00 72 1023.3
20240617031510 63 293 0.0 5.0 0.00 0.00 0.00 71 1023.3
20240617030010 63 170 0.0 6.0 0.00 0.00 0.00 70 1023.4
20240617024508 64 220 0.0 5.0 0.00 0.00 0.00 68 1023.5
20240617023009 64 226 0.0 5.0 0.00 0.00 0.00 66 1023.4
20240617021508 65 226 1.0 4.0 0.00 0.00 0.00 64 1023.5
20240617020008 65 189 0.0 8.0 0.00 0.00 0.00 64 1023.5
20240617014506 66 153 0.0 4.0 0.00 0.00 0.00 62 1023.5
20240617013010 66 176 0.0 6.0 0.00 0.00 0.00 61 1023.5
20240617011507 66 136 0.0 3.0 0.00 0.00 0.00 62 1023.5
20240617010005 66 53 1.0 7.0 0.00 0.00 0.00 61 1023.3
20240617004504 66 161 0.0 4.0 0.00 0.00 0.00 59 1023.2
20240617003006 66 136 1.0 5.0 0.00 0.00 0.00 57 1023.2
20240617001503 67 20 0.0 5.0 0.00 0.00 0.00 56 1023.2
20240617000002 67 141 2.0 7.0 0.00 0.00 0.00 56 1023.2
20240616234501 67 128 1.0 3.0 0.00 0.00 0.00 58 1023.1
20240616233104 67 84 0.0 4.0 0.00 0.00 0.00 57 1023.0
20240616231604 67 15 0.0 4.0 0.00 0.00 0.00 55 1023.0
20240616230059 67 95 1.0 7.0 0.00 0.00 0.00 53 1023.1
20240616224607 68 22 1.0 4.0 0.00 0.00 0.00 51 1023.0
20240616223103 68 51 1.0 4.0 0.00 0.00 0.00 50 1023.0
20240616221556 69 139 2.0 3.0 0.00 0.00 0.00 48 1023.0
20240616220057 70 167 1.0 7.0 0.00 0.00 0.00 47 1023.0
20240616214555 71 34 2.0 5.0 0.00 0.00 0.00 46 1022.9
20240616213056 70 84 0.0 4.0 0.00 0.00 0.00 45 1022.9
20240616211603 72 156 2.0 7.0 0.00 0.00 0.00 45 1023.0
20240616210105 70 326 1.0 7.0 0.00 0.00 0.00 46 1023.0
20240616204552 71 26 1.0 8.0 0.00 0.00 0.00 44 1023.1